Location: B�rgermoos
(47.6500°N, 9.0667°E)
Time: 09:25:31
(UTC+00:00)

A-11 Canister half - Pass Details

Date: 03 August 2021
Orbit: 1526 x 1683 km, 47.3° (Epoch: 20 September)

Event Time Altitude Azimuth Distance (km) Brightness Sun altitude
Rises 13:33:13 0° 274° (W) 4,930 12.1 50.6°
Reaches altitude 10° 13:36:24 10° 275° (W) 3,933 11.7 50.2°
Maximum altitude 13:46:33 87° 187° (S) 1,651 10.2 48.8°
Drops below altitude 10° 13:56:22 10° 101° (E) 3,822 10.9 47.4°
Sets 13:59:25 0° 101° (E) 4,785 11.3 47.0°
